Regional Weather Roundup
Issued by NWS

Home | Current Version | Previous Version | Graphics & Text | Print | Product List | Glossary Off
Versions: 1 2 3 4 5 6 7 8 9 10 11 12 13 14 15 16 17 18 19 20 21 22 23 24 25 26 27 28 29 30 31 32 33 34 35 36 37 38 39 40 41 42 43 44 45 46 47 48 49 50

000
ASUS43 KDMX 280003
RWRIA

WEATHER ROUNDUP FOR IOWA
NATIONAL WEATHER SERVICE DES MOINES IA
700 PM CDT SAT AUG 27 2016

NOTE: "FAIR" INDICATES FEW OR NO CLOUDS BELOW 12,000 FEET WITH NO
SIGNIFICANT WEATHER AND/OR OBSTRUCTIONS TO VISIBILITY.

* - THESE STATIONS ARE NOT NWS STATIONS...THUS NOT UNDER NWS
QUALITY CONTROL.  THEY ALSO DO NOT REPORT WEATHER SUCH
AS PRECIPITATION OR FOG.

IAZ001>003-012>014-020>022-031>034-043>046-280100-
   NORTHWEST IOWA

CITY           SKY/WX    TMP DP  RH WIND       PRES   REMARKS
CARROLL *      SUNNY     77  68  73 CALM      30.00R
CHEROKEE *     SUNNY     76  66  71 CALM      30.00S
DENISON *      SUNNY     77  66  69 S5        29.98S
LE MARS *      SUNNY     77  66  69 S6        30.00R
ORANGE CITY *  SUNNY     73  66  78 S3        30.00S
SHELDON *      SUNNY     73  66  78 S6        29.99S
SIOUX CITY     SUNNY     78  68  71 S6        29.98R HX  80
6HR MIN TEMP:  73; 6HR MAX TEMP:  81;

SPENCER        SUNNY     73  64  73 SW6       30.01S
6HR MIN TEMP:  66; 6HR MAX TEMP:  76;

STORM LAKE *   SUNNY     75  66  73 SW3       30.01S
$$

IAZ055>058-069>071-079>083-090>094-280100-
   SOUTHWEST IOWA

CITY           SKY/WX    TMP DP  RH WIND       PRES   REMARKS
ATLANTIC *     SUNNY     79  68  69 S6        30.00S HX  81
AUDUBON *      SUNNY     79  70  73 S3        30.02R HX  81
CLARINDA *       N/A     81  72  74 MISG      30.02S HX  84
COUNCIL BLFS * SUNNY     79  68  69 S7        29.99S HX  81
CRESTON *      CLEAR     79  70  73 CALM      30.03S HX  81
HARLAN  *      SUNNY     77  68  73 SW3       30.03S
LAMONI         CLEAR     81  69  67 CALM      30.02S HX  84
6HR MIN TEMP:  77; 6HR MAX TEMP:  82;

RED OAK *      SUNNY     81  70  69 CALM      30.00S HX  84
SHENANDOAH *   SUNNY     81 -31   1 CALM      30.00S
$$

IAZ047>049-059>061-072>074-084-280100-
   CENTRAL IOWA

CITY           SKY/WX    TMP DP  RH WIND       PRES   REMARKS
AMES           CLEAR     77  70  79 CALM      30.01S
6HR MIN TEMP:  72; 6HR MAX TEMP:  78;

ANKENY *         N/A    N/A N/A N/A MISG        N/A
BOONE *        CLEAR     75  68  78 CALM      30.01S
CHARITON *       N/A     79  70  73 MISG      30.02R HX  81
DES MOINES     MOCLDY    80  68  66 SW5       30.00R HX  83
6HR MIN TEMP:  74; 6HR MAX TEMP:  83;

GRINNELL*      CLEAR     77  68  73 NW3       30.03R
KNOXVILLE *    CLEAR     79  70  73 CALM      30.00R HX  81
MARSHALLTOWN   CLEAR     77  68  73 CALM      30.02R
6HR MIN TEMP:  70; 6HR MAX TEMP:  77;

NEWTON *       CLEAR     77  72  83 CALM      30.01S
PERRY *          N/A     78  70  77 CALM      30.01S HX  80
$$

IAZ004>006-015-016-023>025-035-036-280100-
   NORTH CENTRAL IOWA

CITY           SKY/WX    TMP DP  RH WIND       PRES   REMARKS
ALGONA *       PTCLDY    75  66  73 SW5       30.01S
ESTHERVILLE    SUNNY     72  66  81 SW6       30.01R
6HR MIN TEMP:  67; 6HR MAX TEMP:  73;

FORT DODGE *   MOCLDY    75  66  73 S8        30.02R
MASON CITY     CLEAR     74  65  73 SW5       30.03R
6HR MIN TEMP:  69; 6HR MAX TEMP:  75;

FOREST CITY *    N/A    N/A N/A N/A MISG        N/A
WEBSTER CITY * CLEAR     73  68  83 S6        30.00R
IOWA FALLS *     N/A     76  66  72 SW5       30.03S
$$

IAZ007>011-017>019-026>030-037>042-050>054-066-280100-
   NORTHEAST IOWA

CITY           SKY/WX    TMP DP  RH WIND       PRES   REMARKS
CEDAR RAPIDS   CLEAR     78  71  79 W5        30.01S HX  80
6HR MIN TEMP:  74; 6HR MAX TEMP:  80;

CHARLES CITY * CLOUDY    73  70  88 SW5       30.03R
CLINTON *      CLOUDY    78  72  81 CALM      30.02S HX  80
DECORAH *      MOCLDY    72  68  88 CALM      30.03R
DUBUQUE        CLEAR     76  68  76 W6        30.04R
6HR MIN TEMP:  72; 6HR MAX TEMP:  78;

MONTICELLO *   PTCLDY    79  70  73 CALM      30.02S HX  81
OELWEIN *      CLEAR     73  68  83 CALM      30.04S
WATERLOO       PTCLDY    75  67  76 CALM      30.01S
6HR MIN TEMP:  70; 6HR MAX TEMP:  77;

$$

IAZ064-065-067-068-078-280100-
   EAST CENTRAL IOWA

CITY           SKY/WX    TMP DP  RH WIND       PRES   REMARKS
DAVENPORT      CLEAR     81  70  69 W3        30.02R HX  84
6HR MIN TEMP:  79; 6HR MAX TEMP:  84;

IOWA CITY      CLEAR     81  69  67 NW5       30.02S HX  84
6HR MIN TEMP:  76; 6HR MAX TEMP:  83;

MT. PLEASANT * PTCLDY    84  75  74 CALM      30.00S HX  92
MUSCATINE *    PTCLDY    84  72  65 CALM      30.00S HX  89
QUAD CITIES    CLEAR     82  71  69 CALM      30.00S HX  86
6HR MIN TEMP:  81; 6HR MAX TEMP:  85;

$$

IAZ062-063-075>077-085>089-095>099-280100-
   SOUTHEAST IOWA

CITY           SKY/WX    TMP DP  RH WIND       PRES   REMARKS
BURLINGTON     PTCLDY    82  74  76 S5        30.00S HX  88
6HR MIN TEMP:  81; 6HR MAX TEMP:  85;

FAIRFIELD *    CLEAR     82  70  65 SW3       30.01R HX  86
FORT MADISON *   N/A     82  73  74 S5        30.02R HX  88
KEOKUK *       PTCLDY    82  73  74 S3        30.00S HX  88
OSKALOOSA *    MOCLDY    79  71  76 W6        30.02R HX  82
CENTERVILLE *    N/A     81  72  74 CALM      30.04R HX  84
OTTUMWA        CLEAR     80  68  66 SW5       30.00R HX  83
6HR MIN TEMP:  77; 6HR MAX TEMP:  83;

WASHINGTON *   CLEAR     81  73  78 SW3       30.01S HX  85
$$

ABBREVIATIONS USED IN REMARKS
   TC - TEMPERATURES IN CELSIUS
  WCI - WIND CHILL INDEX
   HX - HEAT INDEX
  VSB - VISIBILITY
$$





USA.gov is the U.S. government's official web portal to all federal, state and local government web resources and services.